Terminal Aerodrome Forecast
Issued by NWS Milwaukee/Sullivan, WI

Home | Current Version | Previous Version | Text Only | Print | Product List | Glossary On
Versions: 1 2 3 4 5 6 7 8 9 10 11 12 13 14 15 16 17 18 19 20 21 22 23 24 25 26 27 28 29 30 31 32 33 34 35 36 37 38 39 40 41 42 43 44 45 46 47 48
000
FTUS43 KMKX 281120
TAFMSN
TAF
KMSN 281120Z 2812/2912 18004KT P6SM SKC
     FM281900 19007KT P6SM FEW035
     FM290900 19011KT P6SM BKN120 WS020/21045KT=

USA.gov is the U.S. government's official web portal to all federal, state and local government web resources and services.